Location: Goettingen
(51.5300°N, 9.9433°E)
Time: 20:33:29
(UTC+01:00)

ISS - Pass Details

Date: 22 January 2022
Orbit: 413 x 422 km, 51.6° (Epoch: 28 January)

Event Time Altitude Azimuth Distance (km) Brightness Sun altitude
Rises 19:49:37 0° 260° (W) 2,346 1.2 -27.2°
Reaches altitude 10° 19:51:42 10° 259° (W) 1,486 -0.1 -27.5°
Enters shadow 19:52:54 21° 259° (W) 1,007 -1.1 -27.7°
